Starlink 30539

operational
NORAD ID: 58004 Int'l Des: 2023-153 Owner: SPXS Country: US Constellation: starlink
LEOCIRCULAR

About Starlink 30539

Description loading...

Live Position

Loading 3D Globe...

Upcoming Passes

Altitude History

Altitude vs Time

uPlot chart will show altitude changes over time

Two-Line Element Set

1 58004U 23153P 25314.80084127 .00001240 00000-0 10686-3 0 9997
2 58004 43.0051 354.6541 0000870 268.3389 91.7354 15.02544531116999
Epoch: Nov 10, 2025 • Age: 19 hours

Current Status

Altitude 566.0 km
Velocity 7.58 km/s
Sub-Earth Point -28.26°S, 51.95°W
Launch Date Oct 5, 2023
Age 2.1 years
Type internet

Technical Details

Classification Payload
Mass 730.00 kg
Dry Mass 700.00 kg
Total Mass 730.00 kg
Length 0.30 m
Diameter 4.10 m
Span 29.00 m
Shape Box + pan
Manufacturer SPXS
Bus Type Starlink V2M
Phase Status In Orbit
Owner/State SPXS/US

Large Constellations

Loading constellations...